owner,sensor,date,latitude,longitude,vertical_datum,direction_of_sea_water_velocity,sea_water_speed,upward_sea_water_velocity,qcFlag 
TABS,ioos:station:wmo:42048:1,2013-09-01T00:00:00Z,27.9396,-96.8429,2.0,49.1223934,3.147697571,-99999.0,'11133222,11111222,99999999' 
TABS,ioos:station:wmo:42048:1,2013-09-01T00:30:00Z,27.9396,-96.8429,2.0,318.6250605,3.131676867,-99999.0,'11133222,11111222,99999999' 
TABS,ioos:station:wmo:42048:1,2013-09-01T01:00:00Z,27.9396,-96.8429,2.0,333.0436855,1.963313526,-99999.0,'11133222,11111222,99999999' 
TABS,ioos:station:wmo:42048:1,2013-09-01T01:30:00Z,27.9396,-96.8429,2.0,346.4445671,5.204997598,-99999.0,'11133222,11111222,99999999' 
TABS,ioos:station:wmo:42048:1,2013-09-01T02:00:00Z,27.9396,-96.8429,2.0,350.1489062,1.694992625,-99999.0,'11133222,11111222,99999999' 
TABS,ioos:station:wmo:42048:1,2013-09-01T02:30:00Z,27.9396,-96.8429,2.0,14.8301017,4.727472898,-99999.0,'11133222,11111222,99999999' 
TABS,ioos:station:wmo:42048:1,2013-09-01T03:00:00Z,27.9396,-96.8429,2.0,354.0196249,2.111492363,-99999.0,'11133222,11111222,99999999' 
TABS,ioos:station:wmo:42048:1,2013-09-01T03:30:00Z,27.9396,-96.8429,2.0,15.50404292,3.030264015,-99999.0,'11133222,11111222,99999999' 
TABS,ioos:station:wmo:42048:1,2013-09-01T04:00:00Z,27.9396,-96.8429,2.0,38.15734782,3.738943701,-99999.0,'11133222,11111222,99999999' 
TABS,ioos:station:wmo:42048:1,2013-09-01T04:30:00Z,27.9396,-96.8429,2.0,17.32809172,2.618854712,-99999.0,'11133222,11111222,99999999' 
TABS,ioos:station:wmo:42048:1,2013-09-01T05:00:00Z,27.9396,-96.8429,2.0,29.3865217,4.361146638,-99999.0,'11133222,11111222,99999999' 
TABS,ioos:station:wmo:42048:1,2013-09-01T05:30:00Z,27.9396,-96.8429,2.0,50.52119619,4.04219,-99999.0,'11133222,11111222,99999999' 
TABS,ioos:station:wmo:42048:1,2013-09-01T06:00:00Z,27.9396,-96.8429,2.0,60.17734096,4.564482446,-99999.0,'11133222,11111222,99999999' 
TABS,ioos:station:wmo:42048:1,2013-09-01T06:30:00Z,27.9396,-96.8429,2.0,74.19545509,5.030159043,-99999.0,'11133222,11111222,99999999' 
TABS,ioos:station:wmo:42048:1,2013-09-01T07:00:00Z,27.9396,-96.8429,2.0,71.96266756,4.101572869,-99999.0,'11133222,11111222,99999999' 
TABS,ioos:station:wmo:42048:1,2013-09-01T07:30:00Z,27.9396,-96.8429,2.0,63.7766334,5.250380939,-99999.0,'11133222,11111222,99999999' 
TABS,ioos:station:wmo:42048:1,2013-09-01T08:00:00Z,27.9396,-96.8429,2.0,76.63026452,5.838227471,-99999.0,'11133222,11111222,99999999' 
TABS,ioos:station:wmo:42048:1,2013-09-01T08:30:00Z,27.9396,-96.8429,2.0,60.7233027,5.009930139,-99999.0,'11133222,11111222,99999999' 
TABS,ioos:station:wmo:42048:1,2013-09-01T09:00:00Z,27.9396,-96.8429,2.0,57.57969812,9.512670498,-99999.0,'11133222,11111222,99999999' 
TABS,ioos:station:wmo:42048:1,2013-09-01T09:30:00Z,27.9396,-96.8429,2.0,87.34581069,9.069729875,-99999.0,'11133222,11111222,99999999' 
TABS,ioos:station:wmo:42048:1,2013-09-01T10:00:00Z,27.9396,-96.8429,2.0,51.7456691,5.959739927,-99999.0,'11133222,11111222,99999999' 
TABS,ioos:station:wmo:42048:1,2013-09-01T10:30:00Z,27.9396,-96.8429,2.0,67.01321138,8.527097982,-99999.0,'11133222,11111222,99999999' 
TABS,ioos:station:wmo:42048:1,2013-09-01T11:00:00Z,27.9396,-96.8429,2.0,63.64845834,8.403201771,-99999.0,'11133222,11111222,99999999' 
TABS,ioos:station:wmo:42048:1,2013-09-01T11:30:00Z,27.9396,-96.8429,2.0,63.79087994,7.200277772,-99999.0,'11133222,11111222,99999999' 
TABS,ioos:station:wmo:42048:1,2013-09-01T12:00:00Z,27.9396,-96.8429,2.0,44.5608263,6.456074659,-99999.0,'11133222,11111222,99999999' 
TABS,ioos:station:wmo:42048:1,2013-09-01T12:30:00Z,27.9396,-96.8429,2.0,77.32879663,9.163170849,-99999.0,'11133222,11111222,99999999' 
TABS,ioos:station:wmo:42048:1,2013-09-01T13:00:00Z,27.9396,-96.8429,2.0,71.13823065,7.640274864,-99999.0,'11133222,11111222,99999999' 
TABS,ioos:station:wmo:42048:1,2013-09-01T13:30:00Z,27.9396,-96.8429,2.0,67.44479492,8.18615905,-99999.0,'11133222,11111222,99999999' 
TABS,ioos:station:wmo:42048:1,2013-09-01T14:00:00Z,27.9396,-96.8429,2.0,53.3139751,9.976051323,-99999.0,'11133222,11111222,99999999' 
TABS,ioos:station:wmo:42048:1,2013-09-01T14:30:00Z,27.9396,-96.8429,2.0,54.87256847,10.3928052,-99999.0,'11111222,11111222,99999999' 
TABS,ioos:station:wmo:42048:1,2013-09-01T15:00:00Z,27.9396,-96.8429,2.0,48.71388265,6.986744592,-99999.0,'11133222,11111222,99999999' 
TABS,ioos:station:wmo:42048:1,2013-09-01T15:30:00Z,27.9396,-96.8429,2.0,46.38339602,9.95896581,-99999.0,'11133222,11111222,99999999' 
TABS,ioos:station:wmo:42048:1,2013-09-01T16:00:00Z,27.9396,-96.8429,2.0,44.00536118,10.99716782,-99999.0,'11111222,11111222,99999999' 
TABS,ioos:station:wmo:42048:1,2013-09-01T16:30:00Z,27.9396,-96.8429,2.0,44.75835289,10.05514794,-99999.0,'11111222,11111222,99999999' 
TABS,ioos:station:wmo:42048:1,2013-09-01T17:00:00Z,27.9396,-96.8429,2.0,44.28042716,12.94814659,-99999.0,'11111222,11111222,99999999' 
TABS,ioos:station:wmo:42048:1,2013-09-01T17:30:00Z,27.9396,-96.8429,2.0,51.74419528,11.74143518,-99999.0,'11111222,11111222,99999999' 
TABS,ioos:station:wmo:42048:1,2013-09-01T18:00:00Z,27.9396,-96.8429,2.0,47.14926442,9.61634546,-99999.0,'11133222,11111222,99999999' 
TABS,ioos:station:wmo:42048:1,2013-09-01T18:30:00Z,27.9396,-96.8429,2.0,58.34518634,11.08990532,-99999.0,'11111222,11111222,99999999' 
TABS,ioos:station:wmo:42048:1,2013-09-01T19:00:00Z,27.9396,-96.8429,2.0,49.60472885,18.40883755,-99999.0,'11111222,11111222,99999999' 
TABS,ioos:station:wmo:42048:1,2013-09-01T19:30:00Z,27.9396,-96.8429,2.0,59.99859008,18.27918215,-99999.0,'11111222,11111222,99999999' 
TABS,ioos:station:wmo:42048:1,2013-09-01T20:00:00Z,27.9396,-96.8429,2.0,65.3674731,16.84269871,-99999.0,'11111222,11111222,99999999' 
TABS,ioos:station:wmo:42048:1,2013-09-01T20:30:00Z,27.9396,-96.8429,2.0,63.33701393,15.68827588,-99999.0,'11111222,11111222,99999999' 
TABS,ioos:station:wmo:42048:1,2013-09-01T21:00:00Z,27.9396,-96.8429,2.0,54.61712544,17.64994334,-99999.0,'11111222,11111222,99999999' 
TABS,ioos:station:wmo:42048:1,2013-09-01T21:30:00Z,27.9396,-96.8429,2.0,55.9925871,18.02248596,-99999.0,'11111222,11111222,99999999' 
TABS,ioos:station:wmo:42048:1,2013-09-01T22:00:00Z,27.9396,-96.8429,2.0,54.00426764,14.68370866,-99999.0,'11111222,11111222,99999999' 
TABS,ioos:station:wmo:42048:1,2013-09-01T22:30:00Z,27.9396,-96.8429,2.0,56.04769041,14.53884452,-99999.0,'11111222,11111222,99999999' 
TABS,ioos:station:wmo:42048:1,2013-09-01T23:00:00Z,27.9396,-96.8429,2.0,57.0830359,14.3902328,-99999.0,'11111222,11111222,99999999' 
TABS,ioos:station:wmo:42048:1,2013-09-01T23:30:00Z,27.9396,-96.8429,2.0,55.23929688,13.80335104,-99999.0,'11111222,11111222,99999999' 
TABS,ioos:station:wmo:42048:1,2013-09-02T00:00:00Z,27.9396,-96.8429,2.0,55.10594146,14.38655275,-99999.0,'11111222,11111222,99999999' 
TABS,ioos:station:wmo:42048:1,2013-09-02T00:30:00Z,27.9396,-96.8429,2.0,54.74685555,15.45415155,-99999.0,'11111222,11111222,99999999' 
TABS,ioos:station:wmo:42048:1,2013-09-02T01:00:00Z,27.9396,-96.8429,2.0,62.08217128,11.55474794,-99999.0,'11111222,11111222,99999999' 
TABS,ioos:station:wmo:42048:1,2013-09-02T01:30:00Z,27.9396,-96.8429,2.0,53.32120872,10.79806001,-99999.0,'11111222,11111222,99999999' 
TABS,ioos:station:wmo:42048:1,2013-09-02T02:00:00Z,27.9396,-96.8429,2.0,61.84330048,12.39707224,-99999.0,'11111222,11111222,99999999' 
TABS,ioos:station:wmo:42048:1,2013-09-02T02:30:00Z,27.9396,-96.8429,2.0,50.82046067,11.01695058,-99999.0,'11111222,11111222,99999999' 
TABS,ioos:station:wmo:42048:1,2013-09-02T03:00:00Z,27.9396,-96.8429,2.0,53.08566982,12.87000389,-99999.0,'11111222,11111222,99999999' 
TABS,ioos:station:wmo:42048:1,2013-09-02T03:30:00Z,27.9396,-96.8429,2.0,51.31208085,9.51879194,-99999.0,'11133222,11111222,99999999' 
TABS,ioos:station:wmo:42048:1,2013-09-02T04:00:00Z,27.9396,-96.8429,2.0,62.26420779,9.411338906,-99999.0,'11133222,11111222,99999999' 
TABS,ioos:station:wmo:42048:1,2013-09-02T04:30:00Z,27.9396,-96.8429,2.0,67.58116037,9.649290129,-99999.0,'11133222,11111222,99999999' 
TABS,ioos:station:wmo:42048:1,2013-09-02T05:00:00Z,27.9396,-96.8429,2.0,58.60816345,10.09811864,-99999.0,'11111222,11111222,99999999' 
TABS,ioos:station:wmo:42048:1,2013-09-02T05:30:00Z,27.9396,-96.8429,2.0,51.98195249,10.1800442,-99999.0,'11111222,11111222,99999999' 
TABS,ioos:station:wmo:42048:1,2013-09-02T06:00:00Z,27.9396,-96.8429,2.0,51.94008195,10.59228493,-99999.0,'11111222,11111222,99999999' 
TABS,ioos:station:wmo:42048:1,2013-09-02T06:30:00Z,27.9396,-96.8429,2.0,67.49132378,8.724631797,-99999.0,'11133222,11111222,99999999' 
TABS,ioos:station:wmo:42048:1,2013-09-02T07:00:00Z,27.9396,-96.8429,2.0,61.44201064,12.21632105,-99999.0,'11111222,11111222,99999999' 
TABS,ioos:station:wmo:42048:1,2013-09-02T07:30:00Z,27.9396,-96.8429,2.0,51.4358238,12.1753234,-99999.0,'11111222,11111222,99999999' 
TABS,ioos:station:wmo:42048:1,2013-09-02T08:00:00Z,27.9396,-96.8429,2.0,51.06001871,9.578251406,-99999.0,'11133222,11111222,99999999' 
TABS,ioos:station:wmo:42048:1,2013-09-02T08:30:00Z,27.9396,-96.8429,2.0,59.75355778,12.46720899,-99999.0,'11111222,11111222,99999999' 
TABS,ioos:station:wmo:42048:1,2013-09-02T09:00:00Z,27.9396,-96.8429,2.0,81.16768705,10.61588432,-99999.0,'11111222,11111222,99999999' 
TABS,ioos:station:wmo:42048:1,2013-09-02T09:30:00Z,27.9396,-96.8429,2.0,63.76256704,9.387166772,-99999.0,'11133222,11111222,99999999' 
TABS,ioos:station:wmo:42048:1,2013-09-02T10:00:00Z,27.9396,-96.8429,2.0,73.96351001,12.09049213,-99999.0,'11111222,11111222,99999999' 
TABS,ioos:station:wmo:42048:1,2013-09-02T10:30:00Z,27.9396,-96.8429,2.0,55.32808983,9.386905773,-99999.0,'11133222,11111222,99999999' 
TABS,ioos:station:wmo:42048:1,2013-09-02T11:00:00Z,27.9396,-96.8429,2.0,52.51223177,10.38460399,-99999.0,'11111222,11111222,99999999' 
TABS,ioos:station:wmo:42048:1,2013-09-02T11:30:00Z,27.9396,-96.8429,2.0,55.78298114,13.56854082,-99999.0,'11111222,11111222,99999999' 
TABS,ioos:station:wmo:42048:1,2013-09-02T12:00:00Z,27.9396,-96.8429,2.0,63.36410053,10.84046586,-99999.0,'11111222,11111222,99999999' 
TABS,ioos:station:wmo:42048:1,2013-09-02T12:30:00Z,27.9396,-96.8429,2.0,62.39299209,11.80391884,-99999.0,'11111222,11111222,99999999' 
TABS,ioos:station:wmo:42048:1,2013-09-02T13:00:00Z,27.9396,-96.8429,2.0,48.34561472,9.087667468,-99999.0,'11133222,11111222,99999999' 
TABS,ioos:station:wmo:42048:1,2013-09-02T13:30:00Z,27.9396,-96.8429,2.0,54.52971953,11.87354202,-99999.0,'11111222,11111222,99999999' 
TABS,ioos:station:wmo:42048:1,2013-09-02T14:00:00Z,27.9396,-96.8429,2.0,57.21720813,11.5614013,-99999.0,'11111222,11111222,99999999' 
TABS,ioos:station:wmo:42048:1,2013-09-02T14:30:00Z,27.9396,-96.8429,2.0,56.20286665,11.86505794,-99999.0,'11111222,11111222,99999999' 
TABS,ioos:station:wmo:42048:1,2013-09-02T15:00:00Z,27.9396,-96.8429,2.0,44.86529219,12.02084856,-99999.0,'11111222,11111222,99999999' 
TABS,ioos:station:wmo:42048:1,2013-09-02T15:30:00Z,27.9396,-96.8429,2.0,50.74286536,13.77996009,-99999.0,'11111222,11111222,99999999' 
TABS,ioos:station:wmo:42048:1,2013-09-02T16:00:00Z,27.9396,-96.8429,2.0,50.97224317,17.26224203,-99999.0,'11111222,11111222,99999999' 
TABS,ioos:station:wmo:42048:1,2013-09-02T16:30:00Z,27.9396,-96.8429,2.0,56.07641579,19.72807644,-99999.0,'11111222,11111222,99999999' 
TABS,ioos:station:wmo:42048:1,2013-09-02T17:00:00Z,27.9396,-96.8429,2.0,52.1685154,16.20628273,-99999.0,'11111222,11111222,99999999' 
TABS,ioos:station:wmo:42048:1,2013-09-02T17:30:00Z,27.9396,-96.8429,2.0,50.23137596,17.91492395,-99999.0,'11111222,11111222,99999999' 
TABS,ioos:station:wmo:42048:1,2013-09-02T18:00:00Z,27.9396,-96.8429,2.0,53.28716255,18.25006849,-99999.0,'11111222,11111222,99999999' 
TABS,ioos:station:wmo:42048:1,2013-09-02T18:30:00Z,27.9396,-96.8429,2.0,53.40057347,17.37619348,-99999.0,'11111222,11111222,99999999' 
TABS,ioos:station:wmo:42048:1,2013-09-02T19:00:00Z,27.9396,-96.8429,2.0,47.98528421,16.9723805,-99999.0,'11111222,11111222,99999999' 
TABS,ioos:station:wmo:42048:1,2013-09-02T19:30:00Z,27.9396,-96.8429,2.0,41.72857698,22.05524881,-99999.0,'11111222,11111222,99999999' 
TABS,ioos:station:wmo:42048:1,2013-09-02T20:00:00Z,27.9396,-96.8429,2.0,46.98186285,20.447616,-99999.0,'11111222,11111222,99999999' 
TABS,ioos:station:wmo:42048:1,2013-09-02T20:30:00Z,27.9396,-96.8429,2.0,44.98281104,23.42644873,-99999.0,'11111222,11111222,99999999' 
TABS,ioos:station:wmo:42048:1,2013-09-02T21:00:00Z,27.9396,-96.8429,2.0,43.77757038,23.53079897,-99999.0,'11111222,11111222,99999999' 
TABS,ioos:station:wmo:42048:1,2013-09-02T21:30:00Z,27.9396,-96.8429,2.0,45.12493215,19.47376697,-99999.0,'11111222,11111222,99999999' 
TABS,ioos:station:wmo:42048:1,2013-09-02T22:00:00Z,27.9396,-96.8429,2.0,47.67865022,21.78855204,-99999.0,'11111222,11111222,99999999' 
TABS,ioos:station:wmo:42048:1,2013-09-02T22:30:00Z,27.9396,-96.8429,2.0,41.99712359,21.73094798,-99999.0,'11111222,11111222,99999999' 
TABS,ioos:station:wmo:42048:1,2013-09-02T23:00:00Z,27.9396,-96.8429,2.0,46.11494569,22.53268737,-99999.0,'11111222,11111222,99999999' 
TABS,ioos:station:wmo:42048:1,2013-09-02T23:30:00Z,27.9396,-96.8429,2.0,45.92514291,19.7096347,-99999.0,'11111222,11111222,99999999' 
TABS,ioos:station:wmo:42048:1,2013-09-03T00:00:00Z,27.9396,-96.8429,2.0,48.5341955,22.13918924,-99999.0,'11111222,11111222,99999999' 
TABS,ioos:station:wmo:42048:1,2013-09-03T00:30:00Z,27.9396,-96.8429,2.0,46.47669405,18.65967309,-99999.0,'11111222,11111222,99999999' 
TABS,ioos:station:wmo:42048:1,2013-09-03T01:00:00Z,27.9396,-96.8429,2.0,46.08674721,16.03299411,-99999.0,'11111222,11111222,99999999' 
TABS,ioos:station:wmo:42048:1,2013-09-03T01:30:00Z,27.9396,-96.8429,2.0,44.94426154,14.50983804,-99999.0,'11111222,11111222,99999999' 
TABS,ioos:station:wmo:42048:1,2013-09-03T02:00:00Z,27.9396,-96.8429,2.0,39.62250085,15.61801844,-99999.0,'11111222,11111222,99999999' 
TABS,ioos:station:wmo:42048:1,2013-09-03T02:30:00Z,27.9396,-96.8429,2.0,34.73779455,17.90039385,-99999.0,'11111222,11111222,99999999' 
TABS,ioos:station:wmo:42048:1,2013-09-03T03:00:00Z,27.9396,-96.8429,2.0,39.47410519,17.03559215,-99999.0,'11111222,11111222,99999999' 
TABS,ioos:station:wmo:42048:1,2013-09-03T03:30:00Z,27.9396,-96.8429,2.0,37.93254797,15.74670759,-99999.0,'11111222,11111222,99999999' 
TABS,ioos:station:wmo:42048:1,2013-09-03T04:00:00Z,27.9396,-96.8429,2.0,37.63468795,15.88541469,-99999.0,'11111222,11111222,99999999' 
TABS,ioos:station:wmo:42048:1,2013-09-03T04:30:00Z,27.9396,-96.8429,2.0,39.73604226,15.79976266,-99999.0,'11111222,11111222,99999999' 
TABS,ioos:station:wmo:42048:1,2013-09-03T05:00:00Z,27.9396,-96.8429,2.0,42.62918248,15.7253744,-99999.0,'11111222,11111222,99999999' 
TABS,ioos:station:wmo:42048:1,2013-09-03T05:30:00Z,27.9396,-96.8429,2.0,32.11898476,12.8461395,-99999.0,'11111222,11111222,99999999' 
TABS,ioos:station:wmo:42048:1,2013-09-03T06:00:00Z,27.9396,-96.8429,2.0,41.67270877,13.4010522,-99999.0,'11111222,11111222,99999999' 
TABS,ioos:station:wmo:42048:1,2013-09-03T06:30:00Z,27.9396,-96.8429,2.0,27.13091954,13.13530357,-99999.0,'11111222,11111222,99999999' 
TABS,ioos:station:wmo:42048:1,2013-09-03T07:00:00Z,27.9396,-96.8429,2.0,36.78659181,16.48201747,-99999.0,'11111222,11111222,99999999' 
TABS,ioos:station:wmo:42048:1,2013-09-03T07:30:00Z,27.9396,-96.8429,2.0,34.16403247,12.07346264,-99999.0,'11111222,11111222,99999999' 
TABS,ioos:station:wmo:42048:1,2013-09-03T08:00:00Z,27.9396,-96.8429,2.0,34.63838551,12.7376607,-99999.0,'11111222,11111222,99999999' 
TABS,ioos:station:wmo:42048:1,2013-09-03T08:30:00Z,27.9396,-96.8429,2.0,45.19454672,12.50171988,-99999.0,'11111222,11111222,99999999' 
TABS,ioos:station:wmo:42048:1,2013-09-03T09:00:00Z,27.9396,-96.8429,2.0,33.14864532,12.9112238,-99999.0,'11111222,11111222,99999999' 
TABS,ioos:station:wmo:42048:1,2013-09-03T09:30:00Z,27.9396,-96.8429,2.0,37.67322503,11.69914954,-99999.0,'11111222,11111222,99999999' 
TABS,ioos:station:wmo:42048:1,2013-09-03T10:00:00Z,27.9396,-96.8429,2.0,43.71030587,12.87967779,-99999.0,'11111222,11111222,99999999' 
TABS,ioos:station:wmo:42048:1,2013-09-03T10:30:00Z,27.9396,-96.8429,2.0,56.25056054,10.69185204,-99999.0,'11111222,11111222,99999999' 
TABS,ioos:station:wmo:42048:1,2013-09-03T11:00:00Z,27.9396,-96.8429,2.0,44.9089186,13.32897971,-99999.0,'11111222,11111222,99999999' 
TABS,ioos:station:wmo:42048:1,2013-09-03T11:30:00Z,27.9396,-96.8429,2.0,43.06892827,15.31756182,-99999.0,'11111222,11111222,99999999' 
TABS,ioos:station:wmo:42048:1,2013-09-03T12:00:00Z,27.9396,-96.8429,2.0,45.79320457,10.72783762,-99999.0,'11111222,11111222,99999999' 
TABS,ioos:station:wmo:42048:1,2013-09-03T12:30:00Z,27.9396,-96.8429,2.0,48.59427603,12.74592092,-99999.0,'11111222,11111222,99999999' 
TABS,ioos:station:wmo:42048:1,2013-09-03T13:00:00Z,27.9396,-96.8429,2.0,46.53076543,13.76520977,-99999.0,'11111222,11111222,99999999' 
TABS,ioos:station:wmo:42048:1,2013-09-03T13:30:00Z,27.9396,-96.8429,2.0,50.38618016,14.16223852,-99999.0,'11111222,11111222,99999999' 
TABS,ioos:station:wmo:42048:1,2013-09-03T14:00:00Z,27.9396,-96.8429,2.0,57.81496937,10.1378696,-99999.0,'11111222,11111222,99999999' 
TABS,ioos:station:wmo:42048:1,2013-09-03T14:30:00Z,27.9396,-96.8429,2.0,47.26678546,9.475573861,-99999.0,'11133222,11111222,99999999' 
TABS,ioos:station:wmo:42048:1,2013-09-03T15:00:00Z,27.9396,-96.8429,2.0,61.36738412,10.2881388,-99999.0,'11111222,11111222,99999999' 
TABS,ioos:station:wmo:42048:1,2013-09-03T15:30:00Z,27.9396,-96.8429,2.0,56.72834236,9.496720487,-99999.0,'11133222,11111222,99999999' 
TABS,ioos:station:wmo:42048:1,2013-09-03T16:00:00Z,27.9396,-96.8429,2.0,48.74564665,11.79852957,-99999.0,'11111222,11111222,99999999' 
TABS,ioos:station:wmo:42048:1,2013-09-03T16:30:00Z,27.9396,-96.8429,2.0,56.0100368,6.886697322,-99999.0,'11133222,11111222,99999999' 
TABS,ioos:station:wmo:42048:1,2013-09-03T17:00:00Z,27.9396,-96.8429,2.0,40.92485888,5.571947595,-99999.0,'11133222,11111222,99999999' 
TABS,ioos:station:wmo:42048:1,2013-09-03T17:30:00Z,27.9396,-96.8429,2.0,63.98066726,7.04393356,-99999.0,'11133222,11111222,99999999' 
TABS,ioos:station:wmo:42048:1,2013-09-03T18:00:00Z,27.9396,-96.8429,2.0,40.97588617,5.642481723,-99999.0,'11133222,11111222,99999999' 
TABS,ioos:station:wmo:42048:1,2013-09-03T18:30:00Z,27.9396,-96.8429,2.0,43.0695223,5.037459677,-99999.0,'11133222,11111222,99999999' 
TABS,ioos:station:wmo:42048:1,2013-09-03T19:00:00Z,27.9396,-96.8429,2.0,35.25818001,4.763884969,-99999.0,'11133222,11111222,99999999' 
TABS,ioos:station:wmo:42048:1,2013-09-03T19:30:00Z,27.9396,-96.8429,2.0,24.01230734,3.514114398,-99999.0,'11133222,11111222,99999999' 
TABS,ioos:station:wmo:42048:1,2013-09-03T20:00:00Z,27.9396,-96.8429,2.0,5.845578881,5.498590729,-99999.0,'11133222,11111222,99999999' 
TABS,ioos:station:wmo:42048:1,2013-09-03T20:30:00Z,27.9396,-96.8429,2.0,5.207181042,8.264103097,-99999.0,'11133222,11111222,99999999' 
TABS,ioos:station:wmo:42048:1,2013-09-03T21:00:00Z,27.9396,-96.8429,2.0,356.7538741,8.123035147,-99999.0,'11133222,11111222,99999999' 
TABS,ioos:station:wmo:42048:1,2013-09-03T21:30:00Z,27.9396,-96.8429,2.0,1.519483388,10.18357992,-99999.0,'11111222,11111222,99999999' 
TABS,ioos:station:wmo:42048:1,2013-09-03T22:00:00Z,27.9396,-96.8429,2.0,358.0532329,14.12815628,-99999.0,'11111222,11111222,99999999' 
TABS,ioos:station:wmo:42048:1,2013-09-03T22:30:00Z,27.9396,-96.8429,2.0,4.734388145,14.53960453,-99999.0,'11111222,11111222,99999999' 
TABS,ioos:station:wmo:42048:1,2013-09-04T01:30:00Z,27.9396,-96.8429,2.0,18.65490457,15.66287649,-99999.0,'11111222,11111222,99999999' 
TABS,ioos:station:wmo:42048:1,2013-09-04T02:00:00Z,27.9396,-96.8429,2.0,26.67505134,16.32779838,-99999.0,'11111222,11111222,99999999' 
TABS,ioos:station:wmo:42048:1,2013-09-04T02:30:00Z,27.9396,-96.8429,2.0,25.66019247,13.02448463,-99999.0,'11111222,11111222,99999999' 
TABS,ioos:station:wmo:42048:1,2013-09-04T03:00:00Z,27.9396,-96.8429,2.0,28.70693611,14.24028441,-99999.0,'11111222,11111222,99999999' 
TABS,ioos:station:wmo:42048:1,2013-09-04T03:30:00Z,27.9396,-96.8429,2.0,28.82774714,16.42554413,-99999.0,'11111222,11111222,99999999' 
TABS,ioos:station:wmo:42048:1,2013-09-04T04:00:00Z,27.9396,-96.8429,2.0,31.52412511,14.38255888,-99999.0,'11111222,11111222,99999999' 
TABS,ioos:station:wmo:42048:1,2013-09-04T04:30:00Z,27.9396,-96.8429,2.0,32.96397125,14.00453141,-99999.0,'11111222,11111222,99999999' 
TABS,ioos:station:wmo:42048:1,2013-09-04T05:00:00Z,27.9396,-96.8429,2.0,24.47798276,13.99812845,-99999.0,'11111222,11111222,99999999' 
TABS,ioos:station:wmo:42048:1,2013-09-04T05:30:00Z,27.9396,-96.8429,2.0,28.46571515,14.83329026,-99999.0,'11111222,11111222,99999999' 
TABS,ioos:station:wmo:42048:1,2013-09-04T06:00:00Z,27.9396,-96.8429,2.0,26.05637057,12.58955917,-99999.0,'11111222,11111222,99999999' 
TABS,ioos:station:wmo:42048:1,2013-09-04T06:30:00Z,27.9396,-96.8429,2.0,38.92766302,15.70812847,-99999.0,'11111222,11111222,99999999' 
TABS,ioos:station:wmo:42048:1,2013-09-04T07:00:00Z,27.9396,-96.8429,2.0,32.94280554,13.60795356,-99999.0,'11111222,11111222,99999999' 
TABS,ioos:station:wmo:42048:1,2013-09-04T07:30:00Z,27.9396,-96.8429,2.0,47.43255654,12.32890912,-99999.0,'11111222,11111222,99999999' 
TABS,ioos:station:wmo:42048:1,2013-09-04T08:00:00Z,27.9396,-96.8429,2.0,41.6370554,13.98236747,-99999.0,'11111222,11111222,99999999' 
TABS,ioos:station:wmo:42048:1,2013-09-04T08:30:00Z,27.9396,-96.8429,2.0,33.47739357,15.68148271,-99999.0,'11111222,11111222,99999999' 
TABS,ioos:station:wmo:42048:1,2013-09-04T09:00:00Z,27.9396,-96.8429,2.0,45.26566831,12.20479414,-99999.0,'11111222,11111222,99999999' 
TABS,ioos:station:wmo:42048:1,2013-09-04T09:30:00Z,27.9396,-96.8429,2.0,31.07917742,11.93289571,-99999.0,'11111222,11111222,99999999' 
TABS,ioos:station:wmo:42048:1,2013-09-04T10:00:00Z,27.9396,-96.8429,2.0,45.87324208,12.06464256,-99999.0,'11111222,11111222,99999999' 
TABS,ioos:station:wmo:42048:1,2013-09-04T10:30:00Z,27.9396,-96.8429,2.0,58.25478681,9.807201436,-99999.0,'11133222,11111222,99999999' 
TABS,ioos:station:wmo:42048:1,2013-09-04T11:00:00Z,27.9396,-96.8429,2.0,45.18084799,11.20769825,-99999.0,'11111222,11111222,99999999' 
TABS,ioos:station:wmo:42048:1,2013-09-04T11:30:00Z,27.9396,-96.8429,2.0,51.3905856,10.672919,-99999.0,'11111222,11111222,99999999' 
TABS,ioos:station:wmo:42048:1,2013-09-04T12:00:00Z,27.9396,-96.8429,2.0,57.05324147,7.483535261,-99999.0,'11133222,11111222,99999999' 
TABS,ioos:station:wmo:42048:1,2013-09-04T12:30:00Z,27.9396,-96.8429,2.0,64.90097258,9.264825956,-99999.0,'11133222,11111222,99999999' 
TABS,ioos:station:wmo:42048:1,2013-09-04T13:00:00Z,27.9396,-96.8429,2.0,59.08139505,8.718990767,-99999.0,'11133222,11111222,99999999' 
TABS,ioos:station:wmo:42048:1,2013-09-04T13:30:00Z,27.9396,-96.8429,2.0,51.1426095,9.053446857,-99999.0,'11133222,11111222,99999999' 
TABS,ioos:station:wmo:42048:1,2013-09-04T14:00:00Z,27.9396,-96.8429,2.0,67.82882688,8.055631571,-99999.0,'11133222,11111222,99999999' 
TABS,ioos:station:wmo:42048:1,2013-09-04T14:30:00Z,27.9396,-96.8429,2.0,64.17734704,9.665096999,-99999.0,'11133222,11111222,99999999' 
TABS,ioos:station:wmo:42048:1,2013-09-04T15:00:00Z,27.9396,-96.8429,2.0,47.72202274,8.785106715,-99999.0,'11133222,11111222,99999999' 
TABS,ioos:station:wmo:42048:1,2013-09-04T15:30:00Z,27.9396,-96.8429,2.0,58.87543803,8.550953163,-99999.0,'11133222,11111222,99999999' 
TABS,ioos:station:wmo:42048:1,2013-09-04T16:00:00Z,27.9396,-96.8429,2.0,72.96007782,8.053545803,-99999.0,'11133222,11111222,99999999' 
TABS,ioos:station:wmo:42048:1,2013-09-04T16:30:00Z,27.9396,-96.8429,2.0,51.2635812,5.833095233,-99999.0,'11133222,11111222,99999999' 
TABS,ioos:station:wmo:42048:1,2013-09-04T17:00:00Z,27.9396,-96.8429,2.0,70.65845666,4.19686788,-99999.0,'11133222,11111222,99999999' 
TABS,ioos:station:wmo:42048:1,2013-09-04T17:30:00Z,27.9396,-96.8429,2.0,64.27866095,3.34104774,-99999.0,'11133222,11111222,99999999' 
TABS,ioos:station:wmo:42048:1,2013-09-04T18:00:00Z,27.9396,-96.8429,2.0,77.8874054,4.479732135,-99999.0,'11133222,11111222,99999999' 
TABS,ioos:station:wmo:42048:1,2013-09-04T18:30:00Z,27.9396,-96.8429,2.0,82.60600865,2.641968963,-99999.0,'11133222,11111222,99999999' 